Regional Weather Roundup
Issued by NWS Albany, NY

Home | Current Version | Previous Version | Graphics & Text | Print | Product List | Glossary Off
Versions: 1 2 3 4 5 6 7 8 9 10 11 12 13 14 15 16 17 18 19 20 21 22 23 24 25 26 27 28

000
ASUS41 KALY 230310
RWRALY

NEW YORK STATE HOURLY WEATHER ROUNDUP
NATIONAL WEATHER SERVICE ALBANY NY
1100 PM EDT SAT APR 22 2017

NOTE: "FAIR" INDICATES FEW OR NO CLOUDS BELOW 12,000 FEET WITH NO
SIGNIFICANT WEATHER AND/OR NO OBSTRUCTIONS TO VISIBILITY.

NYZ032-033-038>043-046>054-057>066-NYZ062>081-082-084-230400-
EAST


CITY           SKY/WX    TMP DP  RH WIND       PRES   REMARKS
ALBANY         MOCLDY    47  36  65 NW12      30.04R
GLENS FALLS    CLOUDY    46  34  62 N6        30.04R
POUGHKEEPSIE   MOCLDY    46  37  71 CALM      30.00R
MONTGOMERY     CLOUDY    47  36  65 NW3       30.00R
WHITE PLAINS   CLOUDY    50  38  63 NW9       29.98S
ISLIP          CLOUDY    50  41  71 N8        29.97R
NEW YORK CITY  CLOUDY    54  39  57 N10       29.99R
CENTRAL PARK   CLOUDY    52  40  63 VRB5      30.01F
$$

NYZ005>009-017-018-044>046-055-056-230400-
CENTRAL


CITY           SKY/WX    TMP DP  RH WIND       PRES   REMARKS
FULTON         CLEAR     38  35  89 E3        30.08S
SYRACUSE       PTCLDY    41  35  79 CALM      30.08R
ROME           CLOUDY    41  34  76 N6        30.09R
ELMIRA         CLEAR     38  33  82 CALM      30.08S
BINGHAMTON     CLEAR     39  32  76 NW6       30.04S WCI  35
MONTICELLO     MOCLDY    41  34  75 N8        30.03F
$$

NYZ026>034-041>043-087-230400-
NORTH


CITY           SKY/WX    TMP DP  RH WIND       PRES   REMARKS
WATERTOWN      CLEAR     39  35  86 S3        30.08S
FORT DRUM      NOT AVBL
OGDENSBURG     MOCLDY    41  38  87 CALM      30.07R
MASSENA        PTCLDY    38  36  92 CALM      30.08R
SARANAC LAKE   CLOUDY    37  37 100 CALM      30.02R
PLATTSBURGH    CLOUDY    45  36  70 W5        30.03S
$$

NYZ001>004-010>016-019>021-085-230400-
WEST


CITY           SKY/WX    TMP DP  RH WIND       PRES   REMARKS
NIAGARA FALLS  CLEAR     42  34  73 W5        30.10R
BUFFALO        PTCLDY    42  33  70 SW6       30.10S
DUNKIRK        CLEAR     37  34  89 CALM      30.12R
JAMESTOWN      CLEAR     37  30  75 CALM      30.09R
WELLSVILLE     CLEAR     37  30  75 NW3       30.08S
ROCHESTER      CLOUDY    45  37  73 CALM      30.08S
PENN YAN       PTCLDY    39  31  72 CALM      30.07S
$$

             KEY
       WCI = WIND CHILL INDEX
       VSB = VISIBILITY
       HX  = HEAT INDEX
$$




USA.gov is the U.S. government's official web portal to all federal, state and local government web resources and services.